STARLINK-32182, 60319

Orbit data source: Space-Track

STARLINK-32182, 60319 is a payload satellite owned by SpaceX/Seattle (US) in LEO that was launched on Sun, 28 Jul 2024 UTC via an FALCON 9 launch vehicle from the Air Force Western Test Range (AFWTR). Payload-class satellites include a variety of spacecraft equipped with specific instruments for various scientific and technological missions. These include communications satellites like Starlink; space stations such as the ISS; scientific satellites like the Hubble; Earth observation satellites from companies like Planet Labs, Umbra, and HawkEye 360; GPS; miniature CubeSats for education and research; and military/defense satellites.

Loading next visibility...
Identifier
60319, 2024-133U
Orbit
LEO
Country
Flag of USUS
Related business
Manufacturer
SpaceX/Seattle
Mission
Operational Commercial Communications
Bus & Motor
STARLINK V2M, Unknown motor
Mass
730 kg wet, ~700 kg dry
Launch date (UTC)
2024-07-28 (2 years ago)
Launch vehicle
FALCON 9
Launch site
Air Force Western Test Range (AFWTR)
Object type
Payload
Rocket body
Debris
Shape & HBR
Box + 2 Pan, 17.7 m
Radar Cross Section
33.884 m², Large (>1 m²)

Expand to show TLE details & history
Last TLE update: 13 hours ago

TLE from 13 hours ago
0 STARLINK-32182
1 60319U 24133U   26171.31947935  .00007797  00000-0  27292-3 0  9995
2 60319  53.1568 180.3424 0001036  57.3397 302.7704 15.30460724107356
Epoch: 2026-06-20T07:40Z
TLE epoch observation values (Epoch: 2026-06-20T07:40:03.015Z)
Latitude
-0.00001°
Longitude
156.79402°
Altitude
474.952 km
Speed
7.63 km/s
True Right ascension
12h 01m 22s
True Declination
0° 00' 00"
Sunlit
Object was in daylight at epoch
Visualization orbit readout
Latitude
Unknown
Longitude
Unknown
Altitude
Unknown
Speed
Unknown
Apparent Right ascension
Unknown
Apparent Declination
Unknown
Sunlit
N/A
Visualization observer readout
Local Sidereal Time
07:16:33
Azimuth
Unknown
Elevation
Unknown
Doppler factor
Unknown
Orbital elements
Apogee altitude
475.404 km
Perigee altitude
473.984 km
Semi-major axis
6,852.831 km
Eccentricity
0.0001
Inclination
53.1568°
RAAN
180.3424°
Arg. of periapsis
57.3397°
True anomaly
302.76042°
Mean anomaly
302.7704°
Eccentric anomaly
302.76541°
Mean motion
3.82594 °/min
Orbital period
94.09 mins
BSTAR
0.00027292
Loading maneuver chart data...
Computing Atmospheric mass density...
Loading historical data...
Loading historical data...
Loading historical data...
Loading historical data...
Loading historical data...
Loading historical data...
Loading historical data...

Documentation

Showing up to 5 results
|